Starlink 11446

operational
NORAD ID: 62416 Int'l Des: 2024-249 Owner: SPXS Country: US Constellation: starlink
LEOCIRCULAR

Starlink 11446について

説明を読み込み中...

リアルタイム位置

3D地球を読み込み中...

次回通過

高度履歴

Altitude vs Time

uPlot chart will show altitude changes over time

軌道要素

1 62416U 24249H 25305.04930956 .00205930 00000-0 15645-2 0 9993
2 62416 43.0009 222.6256 0001605 281.9480 78.1208 15.70906673 49256
Epoch: Nov 1, 2025 • Age: 26 hours

現在のステータス

高度 357.2 km
速度 7.70 km/s
衛星直下点 33.87°N, 106.18°W
打ち上げ日 Dec 23, 2024
運用期間 0.8 years
タイプ internet

技術仕様

分類 Payload
質量 960.00 kg
乾燥質量 910.00 kg
総質量 960.00 kg
長さ 0.30 m
直径 4.10 m
スパン 29.00 m
形状 Box + pan
製造者 SPXS
バスタイプ Starlink V2MD
フェーズステータス In Orbit
所有者/国 SPXS/US

大規模コンステレーション

Loading constellations...